軌道要素
Epoch 2024 Mar. 31.0 TT = JDT 2460400.5
T 2023 Aug. 8.02101 TT Rudenko
q 1.3187506 (2000.0) P Q
n 0.14148663 Peri. 3.90012 +0.95165220 -0.29388579
a 3.6474760 Node 14.20180 +0.27105434 +0.66649976
e 0.6384485 Incl. 21.36598 +0.14452552 +0.68513445
P 6.97
>From 537 observations 2002 Sept. 29-2024 Feb. 14, mean residual 0".6.
Nongravitational parameters A1 = +0.01, A2 = -0.0020.
|